{"data":{"norad_id":66862,"epoch":"2026-09-20T20:32:01.234176Z","epoch_age_seconds":53594,"freshness":"FRESH","line1":"1 66862U 25281Q   26263.85556984  .00014595  00000+0  53874-3 0  9998","line2":"2 66862  42.9986 321.2770 0001900 278.6875  81.3761 15.27586651 46038","mean_motion":15.27586651,"eccentricity":0.00019,"inclination_deg":42.9986,"raan_deg":321.277,"arg_perigee_deg":278.6875,"mean_anomaly_deg":81.3761,"bstar":0.00053874,"rev_number":4603,"period_min":94.266338283156,"perigee_km":481.72555905091,"apogee_km":484.33280219955,"semimajor_km":6861.1661806252,"source":"CELESTRAK","updated_at":"2026-09-21T09:00:36.028650Z"}}